Torna al catalogo

STARLINK-34771

AttivoComunicazioniVLEO
NORAD 65078·PAYLOAD·🇺🇸 United States

Lanciato Aug 4, 2025 da Cape Canaveral Space Force Station

Loading…

Prossimi Passaggi (prossime 24 ore)

TLE

AggiornatoSource: CelesTrak SupGP

Epoca: Sep 14, 2026, 22:30 UTC

1 65078C 25167A   26257.93798611  .00014661  00000+0  43308-3 0  2578
2 65078  53.1579 223.6907 0001428  93.9031 158.9958 15.34388966    16

Traccia STARLINK-34771 in tempo reale con AllMySat

Download on the App Store